Wind_Speed
20 17 15 14 13 13 13 14 16 17 18 19 19 19 20 22 23 24 24 24 24 24 25 24 23 22 21 21 21 20 21 21 20 21 19 17 16 15 15 15 13 12 11 10 8 6 3 5 7 7 7 4 5 5 4 7 8 6 5 4 5 9 10 8 9 9 12 13 11 10 8 8 8 8 9 10 10 6 3 4 6 10 11 10 9 10 13 15
21 19 16 15 14 13 13 13 15 16 17 18 18 19 19 21 22 23 23 24 24 23 22 21 20 18 17 18 18 19 19 19 21 21 18 17 16 15 16 16 14 13 12 11 8 5 5 4 5 6 6 5 4 5 6 6 5 6 4 5 7 10 11 8 9 8 11 13 11 11 8 8 8 7 8 8 6 4 5 5 6 9 11 11 10 11 12 12
21 20 17 16 14 14 14 14 14 15 17 17 17 18 18 19 21 22 23 24 23 21 19 17 16 15 15 16 16 17 17 18 19 18 17 17 17 16 16 17 15 14 13 11 8 7 8 2 3 6 6 6 5 5 6 4 4 3 4 6 8 8 10 8 8 8 11 13 11 11 9 8 8 5 6 7 5 4 4 5 6 7 8 9 10 11 12 11
20 21 18 16 15 15 15 15 15 15 16 16 17 17 17 18 20 21 22 22 20 17 15 14 14 13 14 14 14 15 15 16 16 15 17 18 17 16 16 18 17 15 15 13 10 9 9 6 6 8 6 7 6 5 8 4 3 3 5 8 9 6 8 7 8 9 11 12 10 10 9 9 7 5 5 5 6 4 2 4 6 8 8 9 11 12 12 13
19 21 19 17 16 15 15 15 15 15 16 16 16 16 17 18 19 21 21 19 17 14 13 11 11 11 11 12 12 13 12 10 14 16 16 18 18 17 17 18 19 17 16 14 12 10 10 9 9 10 8 8 7 7 8 4 3 2 8 10 7 6 8 7 9 11 11 11 10 10 9 9 7 6 5 4 6 6 5 7 8 9 10 9 11 13 12 13
19 20 20 18 17 16 16 16 16 15 15 15 15 16 17 18 19 20 19 17 14 12 12 10 10 10 10 10 9 11 12 8 14 17 15 19 19 17 18 20 21 19 17 15 13 10 10 10 11 12 8 7 9 9 9 4 3 4 6 6 5 7 9 9 11 11 11 11 9 9 8 7 7 7 5 5 8 7 7 8 8 8 11 11 12 14 12 11
19 20 20 19 17 16 16 16 16 16 15 15 15 16 17 17 19 18 17 15 13 12 12 10 10 10 10 10 8 11 15 12 14 15 16 19 19 17 18 22 23 21 19 17 14 11 11 12 12 12 9 7 10 9 8 5 3 5 7 6 6 8 10 11 11 10 10 10 9 8 8 7 7 8 6 5 7 6 5 5 5 5 10 12 13 14 12 11
19 20 20 20 18 17 17 17 16 15 15 14 15 16 16 17 18 17 15 14 13 12 11 11 11 11 12 10 9 10 14 15 14 13 18 19 17 17 20 24 24 21 20 17 15 12 11 13 12 12 10 9 10 8 8 7 4 6 7 7 9 10 12 12 11 11 11 10 9 8 8 8 7 7 6 4 3 2 3 5 6 6 9 12 14 13 12 11
18 19 20 20 19 17 17 17 16 15 14 14 15 16 16 17 17 16 14 13 12 11 10 10 11 12 12 11 11 10 12 18 15 14 19 19 17 18 21 25 24 22 21 18 14 12 12 14 13 13 9 7 10 9 9 9 6 7 7 9 11 12 12 12 12 12 12 10 9 9 9 11 9 8 7 4 2 1 3 7 8 7 9 12 13 13 13 12
18 19 20 20 19 18 17 17 16 15 14 14 15 16 15 16 16 15 13 13 11 10 10 10 11 12 12 13 13 10 14 21 16 15 19 19 17 18 23 25 23 23 20 16 15 14 14 13 12 12 7 8 11 11 10 11 10 8 9 12 12 13 12 12 13 11 11 10 9 10 11 11 8 8 7 4 3 4 5 7 8 9 10 11 12 13 13 12
18 18 19 20 19 19 17 17 17 15 14 14 15 16 15 15 15 13 12 11 10 9 10 10 11 11 12 15 13 11 16 20 18 18 20 19 18 18 24 26 23 23 18 15 15 15 14 10 11 12 8 10 13 12 8 9 12 10 12 14 13 14 12 12 12 11 10 10 10 11 12 10 8 8 6 5 5 6 7 8 8 9 10 10 10 11 11 10
18 18 19 20 19 19 18 17 17 15 14 14 15 16 14 14 14 12 11 10 9 9 10 10 10 9 12 14 16 17 19 20 20 20 20 20 18 18 23 25 23 22 16 15 15 15 15 9 14 15 8 12 14 12 9 8 12 13 13 15 14 14 12 12 11 10 9 9 9 10 12 12 8 7 6 7 8 9 8 8 8 9 10 10 9 9 9 8
17 17 18 19 19 19 18 17 17 15 14 14 15 15 14 13 13 11 11 9 8 9 11 10 8 8 10 10 16 22 21 22 21 20 22 21 19 21 26 25 23 20 15 15 13 16 17 12 15 13 9 13 13 11 12 11 12 14 14 14 14 14 13 11 10 10 9 9 9 7 9 10 7 7 8 9 10 10 11 10 9 9 10 10 9 9 9 9
17 17 18 19 19 19 19 18 17 15 14 14 14 15 14 12 11 11 10 8 8 8 10 8 6 7 12 11 16 21 20 23 23 22 24 21 20 24 28 26 24 20 17 14 14 19 20 16 14 11 11 13 10 11 14 14 13 14 15 13 14 14 14 11 9 11 9 8 7 4 7 9 8 9 9 11 11 11 12 12 11 11 11 10 9 9 10 9
16 17 18 19 19 19 19 18 17 15 14 14 14 14 13 12 11 10 9 8 8 6 8 6 4 8 11 9 15 19 21 24 23 24 23 18 21 26 27 26 23 20 17 12 17 24 21 17 14 12 14 11 11 16 14 14 14 14 15 14 13 11 13 12 10 11 8 5 6 4 6 10 9 10 10 12 12 11 12 12 12 11 11 9 9 9 9 9
16 17 18 19 20 19 19 19 18 15 14 14 14 14 12 11 10 9 9 8 8 6 6 5 4 7 8 5 13 18 23 23 23 26 24 17 19 25 26 24 21 19 16 13 19 24 19 17 15 14 16 12 15 19 15 15 15 13 14 14 14 10 11 14 12 10 6 6 5 3 7 11 10 11 11 11 12 12 12 12 12 12 10 9 9 9 8 8
16 17 18 20 20 20 19 19 19 15 13 13 14 14 12 10 9 9 9 8 8 6 4 4 4 7 10 10 13 18 22 22 23 27 25 20 18 21 24 23 20 19 16 15 19 21 17 17 15 13 17 17 18 19 17 16 15 14 15 15 15 12 10 12 12 11 8 7 6 1 7 12 11 12 12 12 12 12 12 12 13 13 11 9 8 8 8 7
17 18 18 20 21 21 20 20 20 16 13 12 14 15 12 9 9 9 9 8 9 6 4 5 4 5 8 11 12 17 21 22 26 29 26 23 22 21 24 21 19 19 16 16 18 19 18 17 16 15 17 20 21 20 19 16 15 15 15 15 15 13 11 10 10 13 10 8 7 4 8 11 12 13 12 12 12 12 12 12 12 13 12 10 9 8 7 7
19 19 20 20 21 21 20 19 20 18 13 11 13 15 12 8 8 9 10 9 10 9 4 5 6 5 3 6 10 14 19 22 27 29 26 25 24 23 23 20 18 19 18 19 21 21 20 18 18 18 19 21 22 21 19 16 14 14 14 14 15 14 13 11 10 12 12 8 7 6 9 11 12 13 13 13 13 12 12 13 12 12 11 9 10 10 8 8
20 20 21 21 21 22 20 19 20 19 14 10 12 14 12 10 9 9 11 11 11 12 9 7 9 6 2 4 12 15 19 24 27 27 26 25 22 22 23 20 19 20 20 21 23 23 20 20 21 22 21 21 21 19 18 16 11 12 14 14 14 14 13 14 13 13 12 10 8 7 9 12 13 13 14 13 13 13 13 14 13 13 12 10 10 11 10 9
22 22 22 22 22 21 20 18 19 19 15 10 11 13 13 12 7 7 12 11 10 13 14 12 11 10 7 7 14 18 21 23 24 22 24 25 22 23 24 23 22 23 23 22 22 22 21 22 22 21 19 19 19 18 19 15 9 9 15 15 13 14 14 15 16 13 11 10 8 8 9 11 14 14 15 15 14 14 14 15 15 15 14 12 10 10 9 9
24 23 22 22 21 21 20 18 18 19 16 11 10 11 12 14 10 8 12 11 10 13 16 15 14 14 13 11 13 17 18 21 22 20 23 26 25 25 25 25 25 24 23 22 22 24 24 24 22 20 19 18 19 20 19 14 11 11 15 16 16 15 14 14 15 12 10 11 9 9 9 11 15 15 16 16 15 14 15 15 16 15 16 15 13 11 10 10
24 23 23 22 20 20 19 17 17 18 17 12 9 11 12 15 14 10 11 11 10 13 16 18 16 15 16 15 14 16 19 21 23 22 24 27 27 25 24 25 25 23 24 25 24 25 25 24 22 21 20 17 17 18 17 14 13 14 14 16 16 14 13 13 13 12 12 13 11 10 11 12 14 15 16 16 14 14 15 15 16 16 17 17 15 15 14 13
23 22 21 20 19 19 18 16 16 17 16 12 9 10 11 14 15 12 11 10 10 13 16 18 17 16 17 16 15 19 22 22 22 23 26 29 27 24 23 24 24 23 25 25 22 22 23 23 22 21 20 17 16 16 16 16 16 16 16 16 16 14 13 11 12 13 13 14 12 10 11 14 15 16 16 15 14 15 15 16 17 17 18 17 16 17 16 15
22 21 20 19 18 17 17 16 15 16 15 12 10 9 10 13 14 13 12 9 11 14 15 18 18 18 17 15 16 19 22 21 23 24 28 30 27 23 22 23 24 23 24 24 21 19 20 21 23 22 19 18 18 18 18 18 16 16 18 18 17 15 13 13 14 13 12 13 15 14 11 11 15 16 14 15 16 16 16 18 18 19 19 19 19 19 18 17
22 21 19 19 18 16 16 16 15 14 12 11 10 8 9 11 12 13 11 10 12 14 15 17 19 18 18 18 16 18 21 21 22 24 28 31 26 22 20 22 24 22 22 23 21 20 18 19 22 21 18 19 20 20 18 19 18 16 18 20 17 12 9 13 13 12 12 15 16 18 15 10 13 16 15 16 19 18 18 20 21 22 23 23 22 22 20 20
22 21 19 18 18 16 15 15 15 12 9 9 9 7 8 9 11 11 9 10 12 14 15 16 17 15 17 19 18 21 20 20 23 24 29 31 26 22 20 22 24 20 20 22 21 21 17 18 21 20 19 20 21 21 18 20 20 10 11 19 16 11 11 12 9 9 14 18 14 15 16 15 16 17 16 18 21 20 21 22 23 25 26 25 24 24 22 23
22 21 19 18 18 18 15 14 15 13 12 11 10 8 7 8 9 8 7 8 7 12 15 18 19 16 15 17 21 24 18 17 24 26 28 31 27 23 21 22 23 19 19 23 22 18 17 19 22 21 21 21 21 21 18 21 19 3 3 13 15 13 14 13 11 13 16 14 10 11 12 14 15 15 15 18 21 22 23 23 24 25 27 27 26 26 24 23
22 21 20 17 18 19 16 14 14 13 14 13 10 8 7 6 7 6 8 8 6 10 13 18 20 18 18 18 22 24 17 16 23 24 27 30 26 23 21 20 22 19 18 24 23 17 18 20 20 22 23 22 22 21 20 22 17 5 2 8 10 11 14 13 14 18 16 11 10 12 14 13 13 17 18 18 19 20 22 23 24 25 27 29 29 27 26 25
22 22 20 17 17 19 16 14 13 14 14 12 10 8 6 4 5 9 10 7 7 10 11 16 19 19 21 21 23 23 18 18 21 21 27 30 25 23 20 16 20 20 17 24 23 15 16 19 19 23 23 20 19 16 17 20 14 6 7 9 9 11 12 12 13 15 12 10 13 17 19 16 11 16 20 20 20 19 19 22 24 25 28 30 30 29 29 28
22 22 21 18 17 19 17 14 13 14 13 12 11 8 5 6 9 12 9 5 8 11 12 15 19 21 23 24 26 24 19 19 21 23 28 30 26 25 21 18 22 23 20 25 23 13 15 20 21 24 19 15 17 15 14 16 13 9 12 12 12 12 10 10 13 12 9 9 14 18 20 19 13 13 15 16 18 17 17 20 22 25 28 30 31 31 30 31
21 22 21 18 18 18 17 16 14 14 12 11 11 9 7 10 14 16 12 6 8 11 12 16 20 23 24 25 26 25 21 20 22 25 29 30 29 28 25 22 25 25 24 27 23 15 17 22 22 22 19 14 17 19 16 16 16 15 15 15 13 11 9 9 11 10 10 11 13 14 15 15 14 14 15 14 14 14 14 15 17 21 26 30 32 32 31 33
21 22 20 19 18 18 18 17 15 13 12 12 12 11 10 13 14 18 18 11 6 8 11 17 21 22 25 26 25 25 22 21 23 26 28 29 28 29 27 23 24 24 24 26 23 18 19 23 24 23 21 19 18 19 19 18 19 18 17 16 14 10 6 7 8 8 10 13 13 12 10 11 14 15 15 16 15 13 12 12 14 17 21 27 31 31 31 32
21 22 20 19 18 18 18 18 15 14 12 13 14 13 15 17 15 15 19 16 8 4 8 16 20 21 26 26 25 25 23 21 23 25 28 28 28 29 28 25 26 23 22 25 23 19 19 21 25 26 23 22 21 18 17 17 18 18 17 15 15 13 9 6 7 7 9 10 11 11 7 10 13 10 7 10 11 11 11 11 14 15 17 22 26 30 30 31
20 21 20 18 18 18 18 18 16 15 15 15 16 17 19 19 17 16 17 18 13 7 9 14 18 21 25 25 24 26 24 21 24 26 28 29 28 29 30 28 29 27 23 25 22 19 19 19 24 26 23 23 23 19 16 15 17 17 16 17 16 17 14 10 8 8 9 8 6 10 9 12 13 10 8 9 9 11 11 11 14 16 18 19 23 28 30 31
19 20 20 18 18 18 19 19 18 17 17 17 18 20 22 19 18 17 14 13 12 12 14 16 18 22 25 25 24 26 25 21 24 28 27 29 28 28 30 28 30 31 25 23 20 19 19 19 25 26 22 24 24 20 17 17 17 15 17 19 16 14 13 13 11 10 11 9 6 10 13 12 12 14 14 12 8 9 10 11 13 15 19 21 23 26 30 31
18 19 19 18 18 18 19 19 19 19 19 20 21 23 22 19 20 19 12 8 8 10 14 15 20 23 23 25 25 27 27 21 24 29 27 28 28 28 30 28 28 31 28 22 19 19 17 16 25 28 22 22 23 20 19 19 17 14 16 18 14 10 10 12 9 7 8 8 8 11 13 11 10 9 10 12 8 8 9 9 10 13 17 21 23 26 30 32
17 18 18 18 18 18 19 19 20 21 21 21 24 25 22 20 21 19 13 10 9 11 15 15 19 23 22 24 24 26 28 23 25 28 26 28 28 28 31 28 27 29 28 22 17 19 19 13 23 27 22 21 22 21 21 21 19 14 11 14 15 13 11 11 9 6 6 6 8 11 11 11 11 7 10 11 7 6 8 9 9 11 15 18 21 24 28 31
16 15 15 17 17 17 18 19 20 22 23 23 25 26 25 22 20 18 15 13 12 12 15 16 18 23 24 24 22 25 28 25 26 27 25 26 27 28 30 28 27 30 28 21 16 17 21 16 18 24 23 21 23 24 23 22 22 17 11 10 14 14 12 12 13 11 9 6 6 7 7 7 8 9 11 8 4 4 6 8 9 10 11 15 18 20 24 29
14 11 12 17 17 16 18 19 21 24 26 26 25 23 23 22 20 19 16 15 14 14 15 16 17 21 24 25 23 25 28 26 26 27 26 26 26 27 30 27 25 29 29 25 20 15 17 17 15 19 23 22 23 25 25 23 23 22 18 15 16 16 12 9 13 15 12 7 5 5 6 3 3 6 8 5 2 4 6 8 9 9 10 12 15 17 21 26
13 10 14 18 16 15 18 19 23 27 26 26 25 23 22 21 21 21 17 16 17 16 15 13 14 17 20 24 25 24 28 29 26 26 27 27 25 24 27 28 23 24 28 28 25 18 15 18 17 18 21 22 23 25 25 24 23 24 23 21 19 18 15 10 10 15 14 11 8 6 8 4 9 11 7 4 2 3 4 6 7 8 9 10 13 16 18 21
12 8 14 19 16 15 19 20 23 25 25 25 24 22 21 19 20 20 18 17 17 17 15 12 12 13 14 21 25 23 26 30 29 26 26 28 26 21 22 26 25 23 24 27 27 22 17 18 19 19 19 19 20 23 25 25 23 21 22 23 22 20 19 15 11 13 14 13 13 10 9 5 8 8 4 4 1 3 5 6 6 6 8 9 10 13 16 18
13 11 15 21 17 15 18 20 21 23 24 24 22 21 20 18 19 21 18 17 17 17 17 16 14 14 14 17 23 24 24 27 29 28 26 28 28 24 20 23 26 25 23 23 25 24 21 21 21 20 19 18 18 20 24 24 22 22 22 23 24 22 21 19 16 14 12 12 12 10 9 6 6 6 4 3 2 6 5 6 6 6 7 9 10 12 15 16
16 16 17 18 16 17 20 21 21 23 23 22 21 22 21 17 18 21 20 19 18 17 18 18 16 16 16 15 19 23 23 24 27 28 28 26 24 22 20 21 24 25 24 23 23 24 23 23 23 21 17 16 16 16 20 24 24 24 23 22 24 23 21 21 20 15 10 12 13 12 11 6 7 7 4 2 5 5 5 5 6 6 7 8 11 13 15 16
13 13 14 17 17 19 23 21 17 18 21 23 23 22 22 20 18 19 19 18 17 16 17 17 15 15 15 15 16 20 21 24 25 26 29 25 19 20 20 20 22 22 22 23 23 23 24 24 24 22 16 13 15 16 18 22 24 25 25 24 24 23 23 22 21 17 13 15 18 19 16 7 8 4 2 4 5 4 5 6 7 8 9 9 10 13 15 16
12 9 9 14 17 19 22 22 18 15 15 21 25 23 22 22 20 20 20 18 15 15 15 15 13 14 15 15 17 18 20 24 23 23 30 28 20 19 19 19 20 21 21 23 22 19 21 23 24 26 26 22 19 19 19 20 23 24 25 26 26 25 25 24 23 22 18 17 20 21 18 11 9 8 7 6 6 6 7 10 10 11 12 11 12 16 19 18
11 7 7 11 14 17 20 21 21 17 13 14 19 21 21 21 19 18 20 20 16 15 16 17 15 15 16 16 18 19 20 23 21 19 26 30 21 16 19 20 20 22 23 23 21 18 18 22 24 26 30 30 23 20 22 24 26 26 25 28 28 27 26 26 27 26 21 19 19 17 16 19 21 18 13 12 12 11 11 12 13 13 14 14 16 19 22 21
9 9 12 14 14 11 15 18 20 20 16 12 14 15 16 19 19 17 16 17 16 15 16 18 18 17 16 15 15 17 19 24 25 18 19 28 24 15 18 22 21 23 26 23 21 21 20 22 23 21 24 27 26 26 25 24 25 25 25 27 29 28 27 27 27 26 25 24 20 15 15 18 19 17 16 16 15 14 14 15 15 16 16 16 18 21 22 22
14 14 15 19 18 12 12 16 19 19 16 14 14 14 14 16 18 17 15 13 14 15 15 17 19 17 15 14 13 13 15 19 24 21 17 23 24 16 15 20 19 20 23 23 22 23 22 22 21 22 25 27 29 30 28 24 23 25 26 27 27 27 28 28 27 27 27 27 24 20 21 21 18 18 19 19 18 18 20 20 19 18 18 18 19 21 23 23
15 16 16 21 23 18 14 14 15 16 16 15 15 15 15 15 15 14 14 13 12 12 13 15 17 15 13 14 13 13 14 14 16 18 16 15 18 17 15 17 18 18 20 21 20 22 23 22 21 24 27 25 27 29 27 25 24 26 28 28 27 27 27 28 28 28 28 28 24 21 22 21 18 18 19 18 17 19 20 20 19 18 19 19 18 20 22 23
12 15 16 18 18 17 16 15 13 14 15 16 17 17 16 16 14 11 11 13 11 10 10 10 14 15 13 12 12 14 19 20 16 17 17 15 15 17 16 15 15 17 19 20 19 19 21 21 20 21 21 21 24 23 21 24 27 29 31 30 29 29 29 28 28 27 27 26 20 17 19 19 17 16 17 15 14 17 18 17 17 18 18 17 18 21 23 24
9 13 14 16 15 13 14 14 12 13 15 14 15 14 13 14 13 10 11 13 13 14 15 13 15 17 14 13 15 18 22 24 20 17 19 19 17 19 21 18 15 15 17 18 19 18 18 20 20 19 19 22 24 22 22 24 26 27 30 30 30 30 28 27 27 26 23 20 17 16 18 17 15 14 14 14 15 17 18 18 21 22 20 20 22 25 26 26
Wind_Direction
333 329 324 319 314 308 297 286 282 281 284 287 289 292 292 292 293 292 291 289 285 283 281 278 275 272 267 261 256 252 249 246 243 241 237 232 229 224 221 220 212 207 205 198 204 209 190 160 174 168 143 110 86 122 156 139 156 206 200 140 110 102 93 98 101 110 128 124 124 123 115 113 107 102 102 103 110 116 106 135 142 129 149 173 167 160 157 148
329 329 325 321 315 313 305 294 287 285 285 288 291 295 295 295 295 294 293 291 289 288 285 282 278 274 267 260 253 247 244 242 239 237 232 228 226 219 215 216 207 201 197 190 194 187 149 144 175 162 132 125 133 146 142 130 163 226 216 104 77 80 82 90 98 107 129 124 121 122 112 111 115 114 116 118 115 104 104 133 160 160 171 177 166 156 161 158
325 328 325 321 318 315 310 303 294 289 289 291 295 298 298 297 296 296 295 293 293 291 287 283 279 273 267 259 250 243 238 238 237 234 228 222 220 215 210 210 204 196 191 186 188 173 147 165 243 160 143 167 174 164 151 151 167 254 280 121 93 83 91 95 103 105 120 123 121 118 110 107 112 110 121 135 124 97 114 143 183 190 179 175 169 160 157 161
322 326 324 321 319 315 314 310 302 296 294 295 297 299 300 300 299 297 296 295 295 291 287 282 277 272 265 257 249 241 234 236 239 232 221 217 215 210 207 204 199 192 189 187 184 180 167 194 219 168 179 197 181 183 167 178 209 335 1 111 109 103 107 98 108 110 117 123 119 116 111 105 102 100 115 145 140 122 140 164 189 188 175 176 172 166 157 160
319 323 324 321 318 317 316 314 309 302 299 298 299 301 303 304 302 299 298 298 294 288 283 279 276 270 265 257 245 236 226 229 242 230 214 210 210 207 204 198 193 188 186 188 182 183 182 187 197 187 211 202 172 194 178 178 227 68 54 89 101 114 113 108 118 118 121 119 115 116 110 101 94 99 106 127 135 128 144 173 203 192 173 176 174 174 165 159
316 321 323 320 318 318 316 317 314 307 303 301 301 304 306 307 306 302 300 298 292 286 280 277 274 267 265 255 240 228 198 190 236 226 207 206 205 203 200 191 187 183 182 186 177 180 188 187 197 197 210 200 184 192 169 173 213 132 89 87 94 113 115 119 124 119 121 119 111 113 111 101 92 95 102 127 147 157 168 191 227 206 183 181 173 173 169 161
314 319 322 320 318 317 317 318 315 310 305 302 303 306 309 310 308 304 301 297 290 284 279 277 274 266 264 251 236 220 190 194 230 215 202 206 201 199 195 185 182 179 181 181 174 181 190 190 198 201 207 200 195 187 157 182 215 120 109 110 108 117 122 123 124 121 118 115 107 106 107 99 93 92 92 133 169 192 196 206 227 200 192 185 172 171 168 160
313 317 321 320 318 316 316 318 316 311 305 303 305 307 311 312 309 306 301 298 290 286 285 281 276 266 260 246 232 218 195 207 223 201 199 202 196 196 188 181 178 177 182 176 171 183 191 195 198 201 207 197 194 185 167 183 162 123 121 120 122 122 125 125 123 121 116 111 107 104 100 99 101 97 91 117 155 206 189 165 161 162 180 178 169 167 161 154
311 315 320 319 317 316 315 317 316 310 305 304 306 308 312 312 311 307 303 300 293 289 288 284 280 267 254 240 224 210 205 213 210 196 199 196 192 192 182 178 176 177 180 172 174 190 196 199 199 203 207 195 188 176 183 188 139 131 141 130 131 128 128 130 125 121 116 108 105 103 102 105 104 99 99 106 112 153 155 143 142 144 157 163 162 159 157 158
309 313 318 319 316 315 314 316 316 309 305 305 307 310 311 313 311 307 305 301 294 290 290 291 284 266 244 232 212 195 217 215 202 195 196 192 188 186 179 176 177 180 178 176 187 193 191 196 201 208 213 197 186 176 191 183 142 138 147 138 134 131 131 132 127 122 117 108 104 106 107 109 105 98 105 112 123 145 149 144 141 141 146 151 157 159 162 166
307 311 316 319 316 315 313 314 314 308 304 305 309 310 310 314 311 306 307 299 294 291 295 297 285 263 236 225 194 189 225 212 196 195 192 188 186 183 178 175 180 181 177 186 193 186 188 203 200 192 190 186 181 179 183 150 140 150 148 143 139 135 136 133 130 126 119 111 108 109 105 106 110 107 115 132 131 140 149 148 143 142 143 146 157 163 166 170
304 310 315 318 315 314 313 312 313 307 304 307 310 309 309 313 308 305 305 296 292 292 301 303 286 256 229 213 185 194 214 199 190 189 185 185 183 179 176 179 183 178 177 190 193 193 194 200 196 190 191 186 179 184 181 134 143 158 153 149 145 144 144 142 140 131 121 116 119 121 107 97 104 117 128 139 136 141 144 144 148 149 146 148 155 156 161 169
302 308 314 317 315 314 312 311 312 307 303 306 310 309 308 311 308 304 301 293 283 291 309 305 285 245 214 197 196 205 199 185 184 181 180 183 182 179 178 180 181 176 183 192 198 204 193 179 187 198 210 193 181 181 174 155 156 164 164 159 155 154 152 157 155 140 130 120 132 138 109 98 109 126 137 144 143 143 140 143 154 154 151 154 152 149 155 162
301 307 313 316 315 314 312 310 311 307 302 305 311 308 306 309 305 301 298 287 274 292 312 305 290 229 192 181 206 208 190 179 178 176 179 181 184 183 180 180 178 177 181 189 207 203 187 178 183 196 204 194 185 176 164 160 165 170 171 168 174 169 156 166 169 160 151 125 151 169 102 112 133 140 145 149 148 145 144 149 154 155 157 158 155 154 157 161
299 305 311 315 315 314 312 309 309 307 301 304 310 307 305 307 303 298 293 279 264 284 310 311 286 212 189 199 216 200 183 179 174 175 178 178 182 181 181 180 175 174 174 185 206 196 182 180 184 189 193 188 185 179 167 171 178 178 180 178 189 184 158 169 181 178 175 144 193 231 110 123 145 154 156 154 154 154 153 156 158 162 164 162 163 162 161 166
297 303 309 313 315 314 312 308 308 306 299 302 309 307 305 306 301 291 285 274 254 269 303 306 266 200 174 215 224 196 178 176 176 177 175 171 177 178 176 175 174 177 180 188 192 186 180 182 189 195 196 193 186 182 175 185 188 185 197 190 190 197 165 169 184 188 191 161 188 234 139 142 154 161 161 158 158 160 162 163 165 168 169 168 167 168 170 174
295 300 306 311 314 314 311 308 306 304 298 300 307 308 307 308 302 288 283 267 243 255 285 286 261 198 189 208 211 191 177 176 180 180 176 165 165 177 174 170 179 180 181 187 180 180 181 183 194 198 197 198 192 190 187 190 189 187 206 201 189 199 178 172 189 191 196 187 185 165 136 146 155 163 165 163 161 163 166 168 171 173 175 177 172 171 176 179
292 296 302 307 311 312 311 307 304 302 297 299 305 308 311 313 303 285 280 265 240 236 261 273 233 187 226 232 207 187 181 182 181 180 180 167 159 176 178 171 179 178 177 186 179 179 182 184 197 195 191 198 198 199 198 195 191 191 209 206 191 197 190 184 193 186 189 199 188 148 130 144 158 165 167 166 164 166 168 170 175 178 180 180 178 179 176 176
289 292 297 301 306 309 309 305 302 300 295 297 304 307 315 325 321 299 278 258 237 213 215 272 219 180 295 240 192 183 188 190 181 179 183 174 162 172 177 174 178 177 178 185 182 181 185 188 199 200 195 199 201 201 204 202 193 195 212 209 193 191 193 199 197 183 184 196 192 164 150 156 163 168 171 170 168 170 170 172 175 179 184 177 174 184 178 172
285 288 292 296 300 304 305 303 300 297 292 295 301 306 318 331 339 318 278 252 241 221 208 246 221 199 296 192 176 180 188 192 182 178 185 179 168 169 176 179 179 182 184 186 184 182 189 195 200 205 200 201 204 203 205 207 199 197 209 216 201 189 192 198 191 180 186 204 203 174 162 166 173 177 177 175 174 175 174 174 176 178 184 178 173 183 179 174
283 285 289 291 294 299 300 299 298 294 290 291 299 305 315 316 308 286 273 262 257 240 223 227 216 213 230 183 185 192 188 187 179 180 188 181 171 173 182 183 182 188 190 187 187 186 197 204 203 206 203 203 206 206 210 220 238 213 205 215 208 196 201 195 182 173 187 217 210 177 178 181 182 184 182 182 180 179 183 181 179 179 181 182 177 174 174 177
281 283 285 287 289 293 295 296 295 291 288 288 294 301 307 303 288 270 275 270 256 246 234 225 214 217 216 185 197 204 190 185 181 184 189 180 177 180 183 185 185 190 190 188 189 190 203 211 207 205 205 203 203 208 215 226 245 229 209 211 206 199 196 187 181 177 192 218 208 187 204 195 184 189 187 188 188 185 190 189 184 182 180 183 180 174 175 176
281 282 282 283 284 287 289 291 291 288 285 285 289 296 300 300 296 287 278 271 261 251 237 228 216 212 214 205 209 201 188 190 185 187 189 180 180 183 182 187 189 190 190 192 193 191 203 212 206 203 206 206 202 207 215 217 220 224 217 208 209 205 188 184 194 193 200 218 212 197 213 204 186 192 192 191 196 193 194 194 190 188 185 183 181 182 182 176
282 282 281 280 279 282 284 285 287 285 282 285 286 290 297 298 298 295 284 273 267 254 236 228 219 213 217 218 218 199 190 195 189 190 189 179 181 186 187 190 191 193 194 196 199 198 205 210 205 206 207 205 205 204 208 214 210 217 222 211 211 211 201 213 216 195 198 221 224 208 214 209 190 191 195 196 201 198 198 199 195 195 192 185 182 187 185 181
281 281 280 279 275 276 279 279 281 280 280 285 284 286 297 297 297 298 293 282 263 243 229 224 217 215 211 212 219 197 189 198 193 194 192 180 180 187 189 193 194 197 198 197 203 207 209 207 204 208 205 200 207 208 206 214 210 209 219 219 221 215 199 215 215 189 199 227 227 216 220 214 194 194 202 203 206 204 204 203 202 202 198 191 188 191 188 187
279 280 279 278 273 270 270 273 274 274 281 289 279 277 294 295 297 298 293 282 255 222 214 217 214 213 201 200 207 184 187 205 196 197 198 182 179 186 188 195 199 200 198 196 203 214 212 202 201 204 203 199 208 211 205 211 217 213 209 211 229 238 214 219 210 183 211 237 226 215 226 226 206 214 222 217 213 211 213 212 211 210 205 198 193 194 192 190
277 278 278 276 273 265 260 264 268 266 269 277 268 268 289 291 294 301 292 270 240 202 200 206 207 211 196 195 194 175 187 203 189 197 200 182 178 192 191 193 199 202 196 192 203 216 207 192 194 197 200 201 206 210 202 207 220 223 193 194 211 236 235 239 228 203 233 244 221 204 225 233 221 221 219 215 215 216 220 219 216 218 217 210 201 199 199 194
275 275 275 274 271 265 255 254 261 261 254 254 259 266 277 283 290 298 287 268 211 179 193 197 199 201 187 190 189 177 184 189 182 194 198 182 177 193 199 196 198 201 194 194 201 203 192 189 193 195 201 200 203 207 197 203 217 222 128 191 198 219 234 241 239 233 240 246 226 208 232 246 237 229 216 211 216 219 223 220 216 220 223 222 213 206 206 201
274 273 272 270 268 264 256 247 249 254 252 250 255 259 259 278 290 274 265 264 193 178 199 197 195 190 176 182 186 183 188 185 182 188 190 185 181 191 203 199 198 202 198 199 200 193 190 197 195 193 198 196 201 207 196 200 216 215 184 203 199 218 235 232 232 237 232 227 238 234 231 238 243 239 226 214 219 223 221 218 219 222 222 223 220 212 211 209
272 272 270 266 265 261 254 245 240 243 247 246 245 246 250 257 256 244 241 242 206 191 197 199 194 183 175 180 183 187 191 185 185 182 183 189 190 193 201 199 199 206 203 204 208 202 192 196 194 192 197 198 200 203 189 195 213 210 194 201 204 215 228 229 234 249 245 226 241 243 229 223 235 246 230 212 217 227 224 220 223 226 222 220 218 213 211 213
270 270 268 264 261 256 251 241 234 236 236 238 235 230 235 226 229 238 233 229 216 194 189 197 191 182 182 182 181 185 189 187 187 182 180 187 192 195 201 202 202 202 202 204 209 207 184 184 189 193 199 197 190 188 183 192 206 209 202 200 205 204 208 229 232 240 254 245 247 247 231 214 217 251 244 218 212 216 222 227 227 225 220 217 216 213 209 213
269 267 265 263 257 252 247 235 229 231 225 226 225 208 216 226 224 229 232 240 220 200 198 193 184 185 185 184 184 185 187 185 183 182 182 186 191 196 199 198 197 196 193 194 196 196 191 191 190 192 197 193 186 187 188 193 200 208 209 203 204 201 199 225 226 219 236 244 244 245 236 224 229 248 252 249 239 222 219 229 232 227 220 216 216 215 210 210
267 264 262 261 255 247 240 229 223 224 219 218 214 200 218 235 227 222 226 231 208 196 202 188 183 188 186 187 190 187 188 186 181 183 186 188 192 197 201 200 197 195 188 187 190 189 191 194 192 193 198 198 196 192 189 193 199 205 210 205 209 215 208 218 227 227 236 241 232 222 229 246 258 261 249 248 252 244 238 234 233 231 221 216 216 215 213 209
265 263 260 256 253 245 233 224 216 212 212 210 207 207 223 234 231 223 227 228 209 182 195 186 185 189 189 194 193 187 191 189 184 186 187 191 194 195 201 203 199 197 188 187 194 191 188 190 189 193 197 196 200 200 193 192 198 207 213 212 217 228 231 229 232 234 240 245 223 194 203 245 256 265 243 229 239 249 255 242 230 229 222 219 217 215 214 210
263 262 259 252 249 242 228 220 210 206 208 204 206 218 226 227 225 225 231 230 217 202 201 194 192 192 192 199 197 190 193 189 183 187 188 192 196 194 197 199 196 197 191 187 194 196 193 190 188 194 197 195 200 204 198 197 202 207 213 215 218 224 233 247 250 251 267 276 221 192 222 248 252 260 244 236 243 244 247 239 230 229 225 222 219 217 215 212
262 260 257 249 245 238 225 215 206 202 204 201 208 224 228 224 219 220 225 229 225 210 199 195 197 198 193 198 200 193 195 194 184 187 192 194 198 196 195 196 195 198 197 190 189 190 197 197 189 192 197 198 205 206 200 207 207 197 205 219 221 220 232 247 247 242 258 278 252 225 239 242 246 255 236 219 224 229 235 238 233 231 229 226 221 217 213 210
261 259 255 247 240 234 223 212 204 201 199 201 214 225 228 227 225 224 226 237 239 204 195 198 199 202 198 196 200 192 193 198 190 190 194 195 200 198 195 197 198 202 208 207 198 195 208 200 177 183 196 199 206 208 202 216 220 199 201 216 218 217 238 261 263 227 222 250 254 244 249 246 247 247 201 188 206 223 227 232 234 235 235 231 223 217 218 220
259 257 255 245 236 231 222 212 203 199 196 203 220 228 229 232 230 228 233 245 242 207 211 218 200 199 204 201 197 190 190 194 190 193 196 194 199 199 196 198 199 203 212 221 219 203 208 195 164 179 200 195 200 209 204 214 227 223 216 214 211 211 219 234 246 239 223 237 247 236 238 251 255 227 171 176 205 224 228 232 236 241 240 238 232 223 224 228
258 257 257 245 234 228 221 211 202 198 197 207 222 227 230 235 231 224 227 236 236 216 222 231 208 201 209 207 197 188 192 195 190 195 199 195 197 197 197 200 198 199 206 219 225 198 198 203 178 184 198 193 198 211 208 206 213 223 236 224 216 221 221 210 213 238 250 239 251 248 236 254 258 219 184 175 190 219 243 242 236 243 242 242 243 232 225 226
255 249 250 240 229 223 218 210 203 198 201 212 221 224 228 235 231 223 224 226 227 220 224 236 226 209 208 211 205 192 194 200 196 196 200 197 194 193 197 201 198 198 202 213 226 212 201 213 205 190 192 195 202 208 210 207 200 208 224 223 214 217 230 224 208 224 243 250 268 266 249 254 92 140 170 171 211 234 253 252 238 242 244 240 246 241 232 234
247 233 242 241 230 221 214 209 206 202 206 217 223 225 229 233 230 224 225 224 224 224 227 244 243 221 209 212 213 200 194 200 203 200 201 200 194 191 197 202 199 196 200 209 221 222 209 210 211 196 189 201 211 208 209 213 205 203 213 222 224 218 221 230 217 219 235 251 252 249 260 242 111 117 146 149 166 236 259 264 248 244 247 243 244 242 243 249
233 222 246 243 230 222 215 211 210 207 213 221 223 225 229 231 229 223 222 223 224 224 227 242 245 234 223 214 213 210 199 199 203 204 204 202 198 195 199 203 202 200 201 207 213 217 216 216 214 204 198 212 224 213 209 216 218 215 213 218 226 224 219 223 230 228 229 239 243 247 260 229 132 114 125 142 164 288 280 265 252 250 255 253 247 241 246 256
216 210 242 240 225 217 213 212 214 214 220 224 223 225 227 229 227 222 221 223 223 221 222 228 228 227 232 220 214 217 209 201 204 206 207 205 204 204 201 200 203 204 204 208 211 213 218 222 221 216 214 219 224 218 212 213 223 228 222 217 219 222 220 220 232 240 235 235 239 241 247 228 157 140 161 184 285 310 292 252 236 244 254 257 256 247 247 256
220 214 233 238 226 216 209 208 215 218 221 224 223 222 223 228 225 221 225 225 221 219 220 222 223 224 229 225 220 222 215 207 207 208 209 208 205 204 198 192 199 204 206 210 211 210 212 217 222 224 222 212 211 214 208 206 217 227 227 223 222 225 224 220 224 231 231 229 230 238 248 223 160 161 181 273 304 306 283 249 243 256 257 257 257 251 251 256
230 225 232 234 231 221 208 206 222 229 224 222 222 222 224 229 227 222 226 226 220 220 219 219 223 225 222 221 225 226 217 212 210 208 210 208 193 188 190 190 197 204 208 212 215 215 211 212 217 222 224 213 204 208 209 208 216 224 228 228 226 228 230 228 225 219 216 225 235 248 252 210 150 161 316 309 282 280 275 261 261 265 265 260 250 243 246 248
217 218 235 235 235 230 214 211 227 239 232 224 223 223 225 229 229 226 228 228 223 222 223 222 224 223 219 218 222 221 216 218 220 213 211 208 189 178 187 193 199 206 210 213 216 214 211 216 217 218 229 236 226 217 217 219 219 220 224 228 230 230 231 233 236 232 228 231 236 244 252 245 232 255 288 285 272 281 279 269 266 266 266 263 253 246 245 246
195 205 232 220 218 225 221 219 226 231 233 229 222 221 223 223 222 223 227 229 228 227 228 228 226 224 223 221 222 220 212 214 224 219 211 211 201 188 201 206 205 209 211 211 212 205 208 224 224 217 228 241 242 230 223 225 226 224 222 225 230 232 231 232 236 238 238 241 241 238 243 251 255 260 270 278 283 284 278 274 269 266 263 260 264 260 245 240
195 229 229 202 191 210 223 222 223 225 230 233 222 217 218 218 216 219 226 227 228 231 231 228 226 225 224 221 225 230 219 211 214 213 208 213 209 196 207 216 213 214 213 210 210 209 215 229 229 221 227 236 241 240 235 231 231 230 227 226 227 230 231 233 236 237 237 243 247 240 235 247 257 261 264 274 283 281 276 272 264 263 265 260 267 269 254 244
212 226 218 200 195 209 224 218 212 214 222 228 225 219 218 220 220 222 224 223 225 230 229 225 224 222 219 217 222 235 232 215 210 209 211 217 213 200 199 206 208 213 214 212 211 213 222 230 228 227 230 230 233 237 238 238 235 234 233 232 231 230 229 230 234 238 239 242 244 241 242 250 257 261 266 275 278 271 268 267 263 264 268 264 262 264 261 256
223 222 218 210 208 215 225 219 213 218 226 230 227 223 221 223 225 221 218 219 226 230 228 224 222 218 216 219 222 230 233 225 214 214 218 216 210 209 209 204 205 210 211 213 211 210 220 227 226 232 237 234 232 232 232 235 237 237 237 236 236 235 233 233 235 237 240 244 244 237 239 247 253 262 273 275 269 266 269 274 274 273 273 269 261 256 255 255
231 226 227 221 214 222 229 225 225 231 232 229 227 225 222 222 223 218 212 217 219 216 217 215 211 215 220 220 218 217 217 221 223 221 221 218 209 212 215 209 209 210 206 210 211 209 220 228 229 235 242 240 239 237 234 236 240 243 242 240 238 237 239 240 239 237 241 246 242 232 237 249 259 268 271 265 260 269 277 281 281 279 276 268 256 249 248 248
237 231 228 220 215 227 234 227 228 229 225 221 215 210 211 215 218 218 220 226 226 222 225 223 213 214 217 214 215 212 205 209 216 214 215 222 219 213 214 211 211 212 206 208 212 212 222 233 229 227 234 239 240 239 238 240 243 242 239 238 238 238 240 241 239 237 242 246 243 240 247 259 267 265 260 257 261 269 275 276 275 275 273 267 260 254 250 245
Height
3185 3183 3182 3181 3181 3180 3179 3179 3178 3177 3177 3176 3175 3175 3174 3173 3172 3171 3171 3170 3169 3168 3167 3167 3167 3168 3168 3169 3169 3170 3171 3172 3173 3174 3175 3177 3179 3180 3181 3182 3184 3185 3186 3187 3187 3188 3190 3190 3191 3191 3191 3192 3193 3194 3195 3194 3193 3192 3190 3190 3189 3190 3191 3193 3194 3195 3197 3198 3200 3201 3202 3202 3202 3203 3203 3203 3204 3204 3203 3204 3204 3205 3206 3205 3204 3205 3205 3204
3184 3182 3181 3180 3179 3179 3178 3177 3177 3176 3175 3174 3174 3173 3172 3171 3170 3169 3168 3167 3166 3165 3165 3164 3165 3165 3165 3166 3167 3168 3169 3170 3170 3171 3173 3176 3177 3179 3180 3181 3183 3184 3185 3186 3187 3189 3190 3191 3191 3192 3192 3194 3195 3195 3195 3194 3192 3191 3190 3190 3191 3191 3193 3195 3196 3197 3198 3199 3200 3201 3202 3202 3203 3203 3204 3205 3205 3204 3204 3204 3204 3204 3204 3204 3204 3205 3206 3206
3183 3181 3180 3179 3178 3177 3177 3176 3175 3175 3174 3173 3172 3171 3170 3170 3168 3167 3166 3165 3164 3163 3163 3163 3163 3163 3163 3164 3165 3166 3167 3168 3168 3170 3172 3173 3175 3177 3179 3180 3182 3183 3185 3186 3187 3188 3190 3193 3194 3193 3194 3195 3196 3196 3196 3195 3192 3191 3190 3191 3193 3194 3196 3197 3197 3198 3198 3199 3201 3202 3202 3203 3203 3204 3204 3206 3206 3205 3205 3205 3204 3204 3204 3204 3205 3205 3205 3206
3182 3180 3179 3178 3177 3176 3175 3175 3174 3173 3172 3171 3171 3169 3169 3168 3167 3165 3164 3163 3162 3162 3161 3161 3161 3161 3161 3162 3163 3164 3166 3167 3167 3168 3170 3171 3173 3175 3177 3179 3181 3182 3184 3185 3187 3188 3190 3194 3196 3195 3196 3196 3196 3196 3196 3194 3192 3192 3190 3191 3195 3196 3197 3198 3198 3199 3199 3200 3201 3202 3203 3203 3204 3205 3205 3206 3206 3207 3206 3205 3204 3204 3204 3205 3205 3205 3205 3206
3181 3179 3178 3177 3176 3175 3174 3173 3172 3171 3171 3170 3169 3168 3167 3166 3165 3164 3162 3161 3161 3160 3160 3160 3160 3160 3160 3160 3162 3162 3165 3167 3166 3166 3168 3170 3172 3174 3176 3178 3180 3181 3183 3184 3186 3188 3190 3193 3196 3197 3196 3195 3196 3196 3195 3195 3193 3194 3193 3193 3196 3196 3197 3198 3199 3200 3200 3201 3202 3202 3203 3204 3205 3205 3205 3206 3206 3207 3206 3205 3204 3204 3204 3205 3205 3206 3206 3206
3179 3178 3177 3175 3174 3173 3172 3171 3171 3170 3169 3168 3167 3166 3165 3164 3163 3162 3161 3160 3159 3159 3159 3159 3159 3159 3159 3159 3160 3161 3164 3165 3163 3164 3167 3168 3170 3172 3175 3176 3179 3180 3182 3184 3186 3188 3190 3193 3195 3197 3196 3194 3195 3194 3195 3196 3194 3194 3196 3196 3197 3197 3198 3199 3200 3200 3201 3202 3202 3203 3203 3204 3205 3205 3205 3204 3204 3205 3205 3205 3203 3204 3205 3205 3205 3206 3207 3207
3178 3177 3176 3174 3173 3172 3171 3170 3169 3168 3168 3167 3166 3165 3164 3163 3162 3161 3159 3159 3158 3158 3158 3158 3158 3158 3158 3158 3160 3160 3162 3162 3161 3163 3165 3166 3169 3171 3173 3175 3177 3179 3181 3183 3186 3189 3191 3193 3195 3196 3196 3194 3194 3193 3194 3197 3194 3194 3197 3198 3198 3198 3199 3200 3201 3201 3202 3202 3203 3204 3204 3205 3205 3204 3204 3204 3204 3204 3204 3204 3203 3204 3205 3205 3206 3206 3207 3208
3177 3176 3174 3173 3172 3171 3170 3169 3167 3167 3166 3165 3165 3163 3162 3161 3160 3159 3158 3158 3157 3157 3157 3157 3157 3157 3157 3158 3159 3160 3161 3161 3161 3163 3164 3166 3168 3170 3172 3174 3176 3179 3181 3183 3186 3190 3192 3194 3195 3196 3196 3195 3194 3194 3195 3196 3195 3196 3198 3198 3199 3199 3200 3201 3201 3202 3203 3203 3204 3204 3204 3205 3204 3203 3204 3204 3203 3204 3204 3204 3204 3204 3205 3206 3206 3207 3208 3209
3175 3174 3173 3172 3171 3169 3168 3167 3166 3165 3165 3164 3163 3162 3161 3160 3159 3158 3157 3156 3156 3156 3156 3155 3156 3156 3156 3157 3158 3159 3161 3160 3160 3162 3164 3166 3168 3169 3171 3174 3176 3178 3180 3183 3186 3190 3193 3194 3195 3195 3195 3195 3195 3195 3196 3196 3196 3198 3199 3199 3200 3200 3201 3201 3202 3203 3203 3204 3204 3204 3204 3204 3203 3203 3204 3204 3203 3204 3204 3204 3204 3204 3205 3206 3207 3208 3209 3209
3174 3173 3172 3171 3169 3168 3167 3166 3165 3164 3163 3163 3162 3161 3160 3159 3158 3157 3156 3155 3155 3154 3154 3154 3154 3154 3154 3155 3157 3159 3159 3159 3160 3162 3163 3165 3167 3169 3171 3173 3176 3178 3180 3183 3186 3190 3192 3194 3195 3195 3194 3195 3195 3195 3195 3195 3196 3198 3199 3200 3200 3201 3202 3202 3203 3203 3203 3204 3204 3204 3204 3205 3205 3205 3204 3204 3204 3204 3204 3204 3204 3205 3206 3207 3208 3208 3209 3209
3172 3171 3170 3169 3168 3167 3166 3165 3163 3162 3162 3162 3161 3160 3159 3158 3157 3156 3155 3154 3154 3153 3153 3153 3152 3152 3153 3153 3156 3158 3157 3158 3160 3161 3163 3165 3166 3168 3170 3172 3175 3177 3181 3184 3186 3188 3191 3193 3195 3195 3194 3195 3195 3196 3195 3193 3196 3199 3200 3201 3201 3202 3203 3203 3203 3203 3204 3204 3205 3205 3205 3206 3206 3206 3205 3204 3204 3204 3204 3205 3205 3205 3206 3207 3208 3209 3209 3209
3171 3170 3169 3168 3167 3166 3164 3163 3162 3161 3161 3160 3159 3159 3157 3156 3156 3155 3154 3153 3153 3152 3152 3151 3151 3151 3151 3152 3154 3154 3154 3156 3159 3160 3163 3164 3166 3168 3170 3173 3174 3177 3182 3185 3187 3188 3189 3191 3193 3193 3194 3194 3195 3196 3195 3195 3197 3200 3200 3201 3202 3202 3203 3204 3204 3204 3204 3204 3205 3204 3204 3206 3207 3206 3205 3205 3205 3205 3205 3205 3206 3206 3206 3207 3208 3208 3209 3209
3169 3168 3167 3166 3165 3164 3163 3162 3161 3160 3159 3159 3158 3157 3156 3155 3155 3154 3153 3153 3152 3151 3151 3150 3150 3150 3150 3152 3152 3151 3152 3155 3157 3160 3162 3164 3166 3168 3169 3172 3174 3178 3182 3185 3187 3187 3187 3189 3191 3193 3194 3194 3195 3194 3194 3196 3198 3199 3200 3201 3202 3202 3203 3204 3204 3204 3204 3205 3205 3204 3204 3207 3207 3206 3206 3206 3206 3206 3206 3206 3206 3206 3207 3207 3208 3208 3209 3209
3168 3167 3166 3165 3164 3163 3162 3160 3160 3159 3158 3158 3157 3156 3155 3154 3154 3153 3153 3152 3151 3151 3150 3150 3149 3149 3149 3151 3150 3151 3153 3155 3157 3160 3161 3163 3165 3167 3169 3171 3174 3177 3181 3185 3187 3186 3186 3187 3189 3192 3193 3193 3194 3194 3194 3197 3199 3199 3200 3200 3200 3200 3201 3203 3204 3204 3204 3204 3204 3203 3204 3207 3208 3207 3206 3207 3207 3207 3207 3207 3207 3207 3207 3208 3208 3209 3209 3210
3166 3165 3165 3163 3162 3161 3160 3159 3158 3158 3157 3157 3156 3155 3154 3153 3153 3153 3152 3152 3151 3151 3150 3150 3149 3149 3150 3150 3150 3150 3153 3155 3157 3159 3161 3163 3164 3166 3169 3170 3173 3177 3180 3183 3184 3184 3185 3187 3189 3191 3192 3192 3193 3194 3195 3197 3198 3199 3199 3199 3199 3198 3199 3203 3203 3204 3203 3203 3204 3204 3205 3207 3208 3207 3207 3207 3208 3208 3208 3208 3208 3207 3207 3208 3208 3209 3209 3210
3165 3164 3163 3162 3161 3160 3159 3158 3157 3156 3156 3156 3155 3154 3153 3152 3152 3152 3152 3151 3151 3150 3150 3150 3149 3150 3151 3151 3150 3151 3153 3156 3157 3159 3161 3163 3165 3167 3169 3171 3174 3177 3179 3181 3182 3183 3185 3187 3189 3191 3192 3192 3193 3193 3195 3196 3196 3197 3198 3198 3198 3198 3198 3201 3203 3203 3203 3203 3204 3204 3204 3206 3207 3207 3207 3207 3208 3209 3209 3209 3208 3208 3207 3208 3208 3209 3210 3210
3163 3162 3161 3160 3159 3158 3157 3156 3155 3155 3154 3154 3154 3153 3152 3151 3151 3151 3151 3151 3151 3150 3150 3150 3150 3150 3150 3149 3149 3151 3153 3155 3157 3159 3161 3162 3166 3169 3170 3172 3175 3176 3179 3180 3181 3184 3186 3187 3189 3190 3191 3192 3192 3192 3192 3192 3193 3196 3196 3196 3197 3198 3198 3199 3201 3202 3203 3203 3203 3203 3203 3205 3206 3207 3207 3207 3208 3209 3209 3209 3209 3208 3208 3208 3208 3209 3210 3210
3161 3161 3160 3159 3158 3157 3156 3155 3154 3153 3153 3153 3153 3152 3151 3150 3150 3150 3150 3150 3150 3150 3150 3150 3150 3151 3150 3149 3150 3152 3153 3154 3156 3158 3160 3161 3165 3169 3171 3172 3175 3177 3179 3181 3182 3184 3186 3187 3189 3189 3189 3190 3190 3189 3188 3188 3190 3193 3193 3192 3194 3197 3198 3199 3200 3201 3202 3202 3202 3203 3204 3205 3206 3207 3207 3207 3208 3209 3209 3209 3209 3208 3208 3208 3209 3209 3209 3210
3159 3159 3158 3157 3157 3155 3155 3154 3153 3152 3152 3152 3152 3151 3151 3150 3149 3148 3149 3149 3149 3150 3150 3150 3149 3150 3150 3149 3151 3153 3153 3154 3155 3158 3160 3161 3164 3168 3171 3173 3175 3177 3179 3181 3182 3183 3185 3186 3187 3187 3187 3187 3187 3187 3187 3186 3187 3190 3190 3189 3191 3194 3197 3199 3199 3200 3202 3202 3202 3203 3204 3205 3206 3207 3207 3207 3208 3209 3209 3209 3209 3208 3208 3208 3208 3209 3209 3209
3157 3157 3156 3156 3155 3154 3153 3152 3151 3151 3150 3150 3151 3151 3150 3149 3149 3148 3147 3147 3148 3148 3149 3149 3149 3150 3152 3151 3152 3153 3153 3153 3155 3158 3160 3162 3164 3168 3171 3173 3175 3177 3178 3180 3181 3183 3185 3184 3184 3184 3184 3185 3186 3186 3186 3185 3184 3187 3189 3188 3188 3191 3194 3197 3198 3199 3201 3201 3201 3202 3203 3205 3206 3206 3207 3207 3207 3208 3208 3209 3209 3208 3208 3207 3208 3208 3209 3209
3155 3155 3154 3154 3153 3152 3152 3151 3150 3150 3149 3149 3149 3150 3150 3149 3148 3147 3145 3146 3147 3147 3147 3148 3148 3150 3152 3152 3152 3151 3152 3153 3156 3159 3160 3161 3164 3168 3170 3172 3174 3175 3177 3179 3180 3182 3183 3182 3182 3182 3183 3185 3185 3186 3186 3185 3184 3185 3188 3187 3187 3189 3191 3193 3195 3197 3199 3200 3200 3201 3203 3204 3205 3205 3206 3206 3206 3207 3208 3208 3208 3208 3208 3208 3208 3208 3209 3209
3153 3152 3152 3151 3151 3151 3150 3149 3149 3148 3148 3148 3148 3149 3149 3149 3147 3146 3144 3144 3145 3145 3145 3146 3147 3149 3150 3151 3151 3150 3152 3154 3156 3158 3159 3160 3164 3166 3168 3170 3172 3174 3175 3177 3179 3180 3180 3179 3180 3181 3182 3183 3185 3186 3186 3186 3187 3186 3186 3186 3185 3186 3188 3190 3193 3195 3198 3199 3199 3200 3202 3202 3203 3204 3205 3205 3205 3206 3207 3207 3207 3207 3207 3208 3207 3208 3208 3208
3150 3150 3149 3149 3149 3149 3148 3148 3147 3147 3147 3147 3147 3148 3148 3148 3146 3145 3143 3142 3142 3143 3143 3143 3145 3147 3148 3149 3149 3149 3152 3154 3155 3157 3157 3159 3162 3165 3167 3169 3171 3173 3174 3174 3175 3176 3177 3177 3179 3181 3181 3182 3183 3184 3185 3187 3188 3187 3184 3184 3183 3183 3184 3188 3191 3193 3196 3197 3197 3199 3200 3200 3201 3203 3204 3205 3205 3205 3206 3206 3207 3207 3207 3207 3207 3207 3207 3208
3147 3147 3147 3146 3147 3147 3146 3146 3145 3146 3146 3146 3146 3146 3147 3147 3146 3144 3142 3140 3140 3140 3141 3142 3143 3145 3146 3146 3147 3148 3151 3153 3155 3156 3156 3158 3162 3164 3166 3168 3170 3171 3172 3172 3173 3174 3175 3176 3178 3179 3180 3181 3183 3184 3185 3186 3186 3187 3185 3182 3182 3182 3183 3187 3189 3191 3194 3196 3195 3197 3198 3198 3199 3201 3202 3203 3205 3205 3205 3206 3206 3206 3206 3206 3207 3207 3207 3207
3145 3145 3144 3144 3144 3145 3145 3144 3144 3144 3144 3144 3145 3145 3145 3145 3145 3143 3141 3139 3137 3137 3139 3140 3140 3142 3144 3145 3145 3146 3150 3152 3153 3155 3154 3156 3161 3163 3166 3167 3168 3169 3170 3171 3173 3173 3173 3175 3176 3177 3178 3180 3182 3183 3184 3184 3183 3184 3184 3182 3181 3181 3182 3186 3187 3189 3193 3194 3194 3195 3196 3196 3197 3199 3201 3202 3203 3204 3204 3205 3206 3206 3205 3205 3206 3206 3206 3207
3142 3142 3142 3142 3142 3143 3143 3142 3142 3143 3143 3144 3143 3143 3144 3144 3144 3143 3141 3139 3136 3134 3136 3137 3138 3139 3141 3143 3143 3145 3150 3150 3152 3154 3153 3155 3160 3163 3165 3166 3166 3167 3169 3171 3172 3171 3171 3173 3174 3175 3177 3179 3181 3181 3182 3183 3181 3180 3180 3181 3181 3180 3182 3183 3183 3187 3191 3191 3190 3192 3193 3195 3197 3197 3199 3201 3202 3202 3202 3203 3203 3204 3204 3204 3204 3204 3204 3206
3139 3139 3139 3140 3139 3140 3141 3140 3140 3141 3143 3143 3142 3142 3143 3143 3143 3142 3142 3139 3133 3131 3133 3134 3136 3137 3138 3141 3141 3144 3147 3147 3150 3153 3152 3153 3158 3161 3163 3164 3164 3165 3168 3170 3170 3169 3169 3171 3173 3174 3176 3178 3179 3179 3180 3182 3180 3177 3177 3180 3182 3183 3183 3183 3183 3186 3188 3187 3186 3189 3191 3192 3193 3194 3196 3198 3199 3199 3200 3200 3201 3201 3202 3202 3203 3203 3203 3203
3136 3137 3137 3137 3137 3137 3138 3138 3138 3139 3140 3141 3141 3141 3141 3142 3143 3142 3143 3138 3129 3128 3130 3131 3133 3135 3137 3140 3140 3143 3145 3146 3148 3150 3151 3153 3156 3159 3160 3162 3164 3164 3166 3167 3166 3166 3168 3169 3171 3173 3175 3176 3177 3177 3179 3180 3179 3178 3178 3179 3182 3184 3185 3184 3185 3185 3185 3184 3184 3187 3191 3190 3190 3191 3193 3195 3196 3196 3197 3198 3199 3200 3199 3200 3201 3201 3201 3201
3134 3134 3134 3135 3135 3135 3135 3136 3137 3137 3138 3139 3140 3140 3140 3141 3142 3142 3144 3138 3127 3127 3129 3129 3132 3134 3136 3138 3139 3142 3144 3146 3147 3147 3150 3153 3154 3158 3159 3160 3163 3164 3164 3165 3164 3165 3166 3168 3170 3172 3173 3173 3175 3175 3176 3178 3178 3178 3180 3180 3182 3184 3184 3184 3184 3183 3183 3183 3184 3186 3189 3189 3189 3189 3189 3191 3192 3193 3194 3195 3196 3197 3197 3197 3197 3199 3199 3199
3131 3131 3131 3132 3133 3132 3133 3134 3135 3135 3136 3137 3138 3139 3139 3140 3141 3142 3141 3134 3127 3126 3127 3128 3131 3133 3135 3137 3138 3141 3143 3145 3146 3147 3150 3153 3154 3156 3158 3160 3162 3163 3164 3164 3163 3163 3165 3167 3169 3170 3171 3171 3173 3174 3175 3177 3178 3178 3180 3181 3182 3183 3183 3183 3183 3182 3180 3180 3182 3183 3184 3186 3185 3184 3184 3185 3187 3189 3191 3192 3193 3194 3195 3195 3195 3196 3197 3197
3128 3128 3128 3129 3130 3130 3131 3132 3132 3133 3134 3136 3137 3138 3138 3138 3140 3139 3134 3129 3126 3125 3125 3127 3130 3131 3133 3135 3136 3139 3141 3143 3144 3145 3147 3151 3153 3154 3156 3158 3159 3160 3162 3162 3162 3163 3164 3166 3167 3168 3169 3170 3172 3173 3175 3177 3178 3179 3179 3180 3181 3181 3182 3183 3183 3184 3181 3178 3179 3179 3178 3180 3181 3181 3180 3180 3182 3184 3186 3188 3189 3190 3191 3192 3193 3194 3195 3194
3125 3125 3125 3126 3127 3127 3129 3129 3130 3131 3132 3134 3136 3137 3137 3137 3136 3133 3129 3127 3124 3122 3124 3126 3128 3130 3132 3134 3135 3137 3139 3140 3142 3143 3145 3147 3150 3151 3152 3153 3154 3154 3156 3158 3160 3162 3163 3164 3166 3167 3169 3169 3170 3172 3174 3176 3178 3178 3177 3177 3178 3177 3180 3182 3179 3179 3180 3177 3176 3176 3175 3175 3176 3178 3179 3179 3180 3182 3182 3184 3186 3187 3188 3189 3190 3191 3193 3193
3122 3122 3122 3123 3124 3125 3126 3127 3128 3129 3130 3133 3134 3135 3136 3134 3130 3128 3127 3125 3122 3120 3123 3125 3126 3129 3131 3132 3133 3135 3137 3138 3139 3142 3144 3146 3148 3150 3150 3151 3152 3151 3152 3155 3157 3158 3160 3162 3164 3166 3167 3168 3169 3169 3171 3173 3175 3175 3174 3175 3175 3174 3176 3179 3176 3174 3174 3172 3172 3174 3175 3175 3175 3175 3177 3178 3179 3180 3180 3182 3183 3185 3186 3186 3187 3189 3191 3192
3119 3119 3119 3120 3121 3123 3124 3124 3126 3127 3129 3131 3132 3133 3133 3130 3126 3125 3124 3122 3120 3120 3123 3124 3125 3128 3129 3130 3131 3133 3135 3136 3137 3140 3143 3144 3145 3147 3148 3149 3150 3150 3151 3154 3154 3154 3155 3157 3160 3162 3164 3166 3167 3167 3168 3170 3172 3173 3172 3173 3173 3171 3172 3172 3171 3170 3170 3168 3169 3172 3175 3176 3175 3174 3174 3176 3178 3179 3180 3180 3181 3183 3184 3185 3186 3186 3188 3190
3116 3116 3116 3118 3119 3120 3121 3122 3123 3125 3126 3128 3130 3131 3129 3126 3124 3123 3121 3119 3119 3121 3123 3124 3125 3126 3127 3128 3129 3131 3132 3133 3136 3138 3140 3141 3142 3143 3145 3146 3147 3148 3148 3149 3150 3151 3152 3153 3157 3160 3162 3164 3165 3166 3168 3169 3169 3170 3171 3171 3171 3170 3170 3169 3168 3168 3169 3168 3168 3171 3173 3173 3173 3172 3173 3175 3176 3177 3179 3179 3180 3181 3182 3184 3185 3185 3185 3187
3113 3113 3113 3115 3116 3117 3119 3120 3121 3122 3124 3126 3128 3127 3124 3122 3121 3120 3119 3118 3118 3119 3121 3122 3123 3123 3124 3126 3127 3128 3130 3130 3133 3136 3137 3139 3139 3140 3142 3143 3144 3145 3144 3145 3146 3148 3149 3150 3153 3158 3161 3163 3164 3165 3167 3167 3165 3167 3169 3168 3167 3168 3169 3167 3166 3167 3170 3169 3166 3168 3168 3169 3170 3169 3170 3173 3175 3176 3177 3178 3178 3179 3180 3181 3182 3183 3183 3184
3110 3110 3111 3112 3114 3115 3116 3117 3118 3120 3121 3123 3124 3122 3121 3120 3119 3118 3118 3118 3117 3117 3119 3119 3120 3120 3120 3122 3123 3125 3128 3129 3130 3132 3133 3135 3136 3137 3139 3141 3142 3143 3142 3142 3143 3145 3146 3145 3149 3155 3158 3160 3162 3164 3165 3165 3163 3163 3166 3166 3166 3168 3169 3168 3166 3166 3170 3169 3165 3165 3165 3165 3166 3165 3166 3170 3173 3174 3175 3176 3177 3177 3178 3178 3179 3180 3180 3181
3108 3108 3108 3110 3111 3113 3114 3115 3116 3117 3119 3120 3120 3119 3118 3118 3117 3117 3118 3118 3118 3118 3119 3117 3117 3118 3118 3118 3119 3122 3125 3126 3127 3129 3130 3131 3132 3133 3136 3139 3140 3142 3142 3141 3142 3143 3144 3144 3148 3154 3156 3158 3161 3162 3162 3163 3163 3162 3163 3164 3164 3166 3168 3170 3168 3166 3167 3167 3163 3161 3162 3162 3163 3163 3166 3169 3171 3173 3174 3175 3175 3176 3176 3176 3176 3178 3178 3177
3106 3106 3106 3107 3109 3110 3112 3112 3113 3115 3116 3117 3117 3116 3116 3115 3115 3116 3117 3118 3118 3118 3118 3116 3114 3115 3116 3116 3117 3120 3123 3123 3125 3127 3127 3127 3129 3130 3134 3136 3137 3140 3142 3142 3140 3141 3142 3144 3147 3151 3153 3156 3159 3159 3158 3160 3162 3162 3163 3163 3163 3163 3164 3166 3167 3166 3164 3162 3160 3159 3158 3159 3160 3161 3164 3167 3169 3172 3173 3173 3174 3174 3174 3174 3174 3175 3176 3176
3104 3105 3105 3104 3106 3108 3109 3110 3111 3112 3112 3112 3113 3114 3114 3114 3114 3115 3117 3117 3117 3117 3117 3116 3114 3113 3114 3114 3114 3117 3120 3122 3123 3125 3125 3125 3126 3128 3131 3134 3135 3137 3141 3142 3140 3140 3141 3143 3145 3147 3151 3153 3154 3155 3155 3157 3159 3162 3163 3162 3162 3162 3162 3162 3164 3165 3163 3160 3160 3160 3159 3158 3159 3160 3163 3166 3168 3170 3171 3172 3172 3172 3173 3173 3173 3173 3173 3173
3101 3103 3102 3102 3104 3106 3107 3108 3108 3108 3109 3110 3111 3112 3113 3113 3113 3114 3115 3116 3116 3115 3115 3114 3113 3112 3112 3113 3112 3113 3117 3120 3121 3122 3122 3122 3124 3126 3129 3132 3134 3136 3139 3141 3141 3140 3141 3142 3143 3145 3147 3150 3151 3152 3154 3155 3155 3158 3160 3161 3159 3159 3161 3162 3161 3161 3162 3161 3160 3161 3160 3158 3159 3161 3164 3166 3168 3169 3170 3171 3171 3171 3171 3171 3171 3172 3171 3171
3100 3102 3101 3100 3102 3103 3104 3105 3105 3106 3107 3107 3108 3110 3110 3111 3112 3113 3114 3114 3114 3114 3114 3113 3112 3111 3111 3111 3111 3111 3113 3116 3117 3119 3120 3120 3122 3124 3127 3130 3133 3135 3137 3138 3140 3141 3141 3141 3142 3143 3145 3148 3149 3150 3152 3153 3154 3154 3156 3158 3158 3157 3158 3160 3159 3158 3160 3160 3160 3161 3160 3159 3160 3162 3164 3165 3167 3168 3169 3169 3170 3170 3170 3170 3170 3170 3170 3169
3098 3099 3098 3097 3099 3101 3102 3103 3104 3105 3105 3105 3106 3107 3108 3109 3110 3111 3112 3112 3112 3113 3113 3113 3113 3112 3111 3111 3111 3111 3110 3112 3114 3117 3118 3119 3120 3122 3125 3129 3131 3133 3135 3136 3138 3141 3141 3140 3140 3142 3144 3145 3147 3148 3149 3151 3153 3152 3151 3153 3155 3154 3155 3157 3158 3157 3158 3159 3160 3160 3159 3158 3159 3161 3163 3164 3166 3167 3167 3167 3167 3168 3169 3169 3169 3169 3168 3167
3094 3096 3096 3095 3097 3099 3099 3100 3102 3102 3102 3103 3104 3104 3105 3107 3108 3109 3110 3110 3111 3111 3111 3111 3112 3112 3112 3111 3111 3110 3110 3110 3112 3115 3116 3117 3119 3120 3124 3127 3129 3131 3133 3134 3136 3137 3138 3139 3139 3139 3140 3141 3144 3145 3145 3148 3151 3150 3149 3150 3151 3151 3152 3154 3155 3156 3158 3160 3161 3160 3158 3158 3159 3160 3161 3163 3165 3166 3166 3166 3166 3166 3166 3167 3167 3167 3166 3166
3092 3094 3095 3094 3094 3095 3096 3098 3100 3100 3100 3101 3101 3102 3103 3104 3105 3106 3107 3108 3109 3109 3109 3110 3111 3111 3111 3111 3111 3110 3110 3110 3111 3113 3114 3115 3117 3119 3123 3126 3127 3129 3131 3132 3134 3135 3135 3137 3138 3137 3136 3136 3138 3140 3142 3146 3149 3149 3149 3148 3148 3149 3150 3150 3151 3153 3155 3159 3160 3158 3156 3157 3159 3159 3160 3162 3164 3164 3165 3165 3165 3164 3164 3164 3165 3165 3165 3164
3091 3093 3095 3094 3093 3093 3094 3095 3096 3097 3097 3098 3098 3099 3101 3101 3103 3104 3105 3106 3107 3107 3107 3108 3109 3109 3109 3110 3110 3109 3110 3110 3110 3111 3112 3113 3115 3117 3121 3124 3125 3128 3129 3129 3131 3133 3134 3135 3136 3137 3136 3133 3133 3137 3142 3145 3146 3146 3147 3147 3146 3147 3148 3149 3149 3148 3151 3155 3155 3154 3155 3157 3158 3158 3160 3161 3161 3162 3163 3164 3164 3163 3163 3162 3162 3162 3163 3162
3090 3092 3093 3093 3092 3092 3093 3094 3095 3095 3095 3096 3096 3097 3098 3099 3101 3102 3102 3103 3104 3105 3105 3106 3107 3107 3108 3109 3109 3108 3109 3110 3109 3109 3110 3112 3113 3115 3118 3121 3124 3125 3126 3128 3130 3132 3133 3133 3133 3135 3136 3134 3134 3136 3139 3141 3141 3141 3144 3145 3144 3145 3145 3146 3146 3146 3149 3151 3150 3151 3155 3156 3157 3157 3159 3159 3160 3161 3161 3161 3162 3161 3161 3160 3159 3159 3159 3159
3088 3089 3089 3089 3090 3091 3093 3093 3093 3094 3095 3095 3094 3095 3096 3097 3099 3100 3100 3101 3102 3102 3103 3104 3104 3105 3106 3107 3107 3107 3107 3108 3108 3109 3110 3111 3111 3113 3116 3119 3122 3123 3125 3128 3129 3130 3132 3131 3130 3133 3134 3135 3135 3135 3135 3136 3136 3137 3139 3140 3141 3142 3142 3143 3144 3145 3148 3148 3147 3150 3153 3155 3156 3156 3157 3158 3158 3159 3159 3159 3159 3158 3158 3158 3156 3155 3155 3155
3084 3085 3085 3086 3086 3087 3088 3088 3089 3091 3092 3093 3093 3094 3095 3096 3097 3098 3099 3099 3100 3101 3101 3101 3102 3103 3105 3106 3106 3107 3106 3106 3107 3109 3110 3110 3110 3112 3114 3118 3120 3121 3123 3125 3127 3129 3129 3128 3130 3132 3132 3132 3134 3133 3133 3133 3134 3135 3136 3136 3137 3138 3139 3140 3142 3143 3144 3144 3146 3149 3150 3152 3154 3154 3155 3156 3156 3155 3155 3155 3155 3155 3155 3154 3154 3153 3152 3152
3082 3082 3082 3083 3083 3085 3085 3086 3088 3089 3090 3091 3092 3092 3093 3095 3096 3097 3097 3098 3099 3100 3099 3100 3102 3102 3103 3104 3105 3105 3104 3104 3106 3107 3108 3109 3110 3112 3114 3116 3118 3120 3122 3123 3125 3127 3126 3126 3128 3129 3127 3127 3128 3129 3130 3131 3132 3133 3132 3132 3133 3134 3135 3136 3138 3140 3140 3141 3143 3146 3147 3149 3151 3151 3152 3153 3152 3151 3152 3152 3152 3151 3151 3151 3151 3151 3150 3149
3080 3081 3080 3081 3083 3084 3084 3086 3087 3089 3089 3090 3090 3091 3092 3093 3094 3094 3095 3095 3097 3097 3097 3098 3099 3100 3101 3104 3104 3103 3103 3104 3106 3107 3108 3109 3110 3111 3113 3115 3117 3119 3120 3122 3123 3124 3125 3125 3127 3127 3126 3125 3126 3127 3128 3131 3132 3131 3129 3129 3131 3131 3132 3133 3134 3136 3138 3138 3141 3143 3144 3146 3148 3149 3150 3150 3150 3150 3150 3149 3149 3147 3147 3147 3147 3147 3147 3147
3079 3079 3079 3080 3081 3082 3083 3085 3086 3087 3087 3087 3087 3088 3090 3091 3091 3092 3093 3094 3095 3094 3094 3095 3096 3098 3102 3102 3101 3101 3103 3104 3105 3107 3108 3109 3110 3112 3113 3114 3116 3117 3119 3121 3122 3123 3124 3124 3125 3126 3127 3126 3127 3128 3130 3132 3130 3125 3125 3127 3128 3128 3129 3130 3131 3134 3136 3137 3139 3141 3142 3144 3146 3146 3147 3147 3148 3148 3147 3147 3145 3144 3143 3143 3143 3142 3142 3143